GW3250 Weather Reports


time (UTC)temp
C
wind
direction
speed
KPH
gust
KPH
rain 1hr
cm
rain 24hr
cm
rain mn
cm
humidity
%
barometer
mb
20260904145538 24 189 3.2 4.8 0.00 0.81 0.81 81 1011.7
20260904145033 24 136 1.6 3.2 0.00 0.81 0.81 83 1011.8
20260904144529 23 334 1.6 3.2 0.00 0.81 0.81 83 1012.0
20260904144026 23 228 4.8 6.4 0.00 0.81 0.81 81 1011.9
20260904143521 23 251 3.2 4.8 0.00 0.81 0.81 87 1011.8
20260904143018 23 224 3.2 3.2 0.00 0.81 0.81 87 1011.8
20260904142514 23 160 3.2 3.2 0.00 0.81 0.81 82 1011.7
20260904142013 22 156 1.6 3.2 0.00 0.81 0.81 87 1012.0
20260904141508 22 268 1.6 4.8 0.00 0.81 0.81 90 1011.8
20260904141004 22 173 4.8 4.8 0.00 0.81 0.81 87 1011.6
20260904140459 22 155 1.6 1.6 0.00 0.81 0.81 91 1011.8
20260904135958 22 148 1.6 3.2 0.00 0.81 0.81 94 1011.5
20260904135452 21 203 1.6 3.2 0.00 0.81 0.81 97 1011.6
20260904134948 21 197 3.2 4.8 0.00 0.81 0.81 98 1011.8
20260904134443 20 177 1.6 3.2 0.00 0.81 0.81 99 1011.7
20260904133937 20 198 1.6 1.6 0.00 0.81 0.81 99 1011.6
20260904133432 20 194 3.2 3.2 0.00 0.81 0.81 99 1011.6
20260904132928 21 218 6.4 6.4 0.00 0.81 0.81 99 1011.7
20260904132423 20 175 0.0 1.6 0.00 0.81 0.81 99 1011.8
20260904131922 20 177 1.6 1.6 0.00 0.81 0.81 99 1011.5
20260904131418 20 154 1.6 1.6 0.00 0.81 0.81 99 1011.7
20260904130914 20 182 0.0 1.6 0.00 0.81 0.81 99 1011.9
20260904130412 20 193 3.2 3.2 0.00 0.81 0.81 99 1011.4
20260904125907 20 167 0.0 1.6 0.00 0.81 0.81 99 1011.6
20260904125404 20 174 1.6 1.6 0.00 0.81 0.81 99 1011.3
20260904124903 20 174 1.6 1.6 0.00 0.81 0.81 99 1011.4
20260904124400 20 192 3.2 3.2 0.00 0.81 0.81 99 1011.5
20260904123855 20 175 1.6 1.6 0.00 0.81 0.81 99 1011.7
20260904123349 20 174 1.6 1.6 0.00 0.81 0.81 99 1011.6
20260904122844 20 168 1.6 1.6 0.00 0.81 0.81 99 1011.7
20260904122338 20 170 1.6 1.6 0.00 0.81 0.81 99 1011.5
20260904121834 19 153 0.0 0.0 0.00 0.81 0.81 99 1011.6
20260904121330 19 170 1.6 1.6 0.00 0.81 0.81 99 1011.7
20260904120826 19 168 0.0 1.6 0.00 0.81 0.81 99 1011.7
20260904120322 19 168 1.6 1.6 0.00 0.81 0.81 99 1011.7
20260904115816 19 168 1.6 1.6 0.00 0.81 0.81 99 1011.6
20260904115312 18 165 1.6 1.6 0.00 0.81 0.81 99 1011.5
20260904114811 18 165 1.6 1.6 0.00 0.81 0.81 99 1011.5
20260904114306 18 160 0.0 0.0 0.00 0.81 0.81 99 1011.2
20260904113802 18 160 0.0 0.0 0.00 0.81 0.81 99 1011.2
20260904113300 18 161 1.6 1.6 0.00 0.81 0.81 99 1011.4
20260904112755 18 161 1.6 1.6 0.00 0.81 0.81 99 1011.2
20260904112251 18 157 1.6 1.6 0.00 0.81 0.81 99 1011.3
20260904111747 18 157 0.0 0.0 0.00 0.81 0.81 99 1011.1
20260904111242 18 157 0.0 0.0 0.00 0.81 0.81 99 1011.2
20260904110738 18 157 0.0 0.0 0.00 0.81 0.81 99 1011.3
20260904110237 18 156 0.0 0.0 0.00 0.81 0.81 99 1011.2
20260904105732 18 156 0.0 0.0 0.00 0.81 0.81 99 1011.1
20260904105227 18 156 0.0 0.0 0.00 0.81 0.81 99 1010.9
20260904104722 18 156 0.0 0.0 0.00 0.81 0.81 99 1011.0
20260904104218 18 163 0.0 0.0 0.00 0.81 0.81 99 1010.8
20260904103715 18 163 0.0 0.0 0.00 0.81 0.81 99 1011.0
20260904103209 18 163 1.6 1.6 0.00 0.81 0.81 99 1011.0
20260904102705 19 163 0.0 0.0 0.00 0.81 0.81 99 1011.2
20260904102200 18 167 3.2 3.2 0.00 0.81 0.81 99 1011.3
20260904101657 18 159 0.0 0.0 0.00 0.81 0.81 99 1010.8
20260904101152 18 159 1.6 1.6 0.00 0.81 0.81 99 1011.1
20260904100648 18 159 0.0 0.0 0.00 0.81 0.81 99 1011.1
20260904100143 18 159 0.0 1.6 0.00 0.81 0.81 99 1010.9
20260904095643 18 168 3.2 3.2 0.00 0.81 0.81 99 1010.9
20260904095137 18 172 0.0 1.6 0.00 0.81 0.81 99 1010.9
20260904094632 18 169 1.6 1.6 0.00 0.81 0.81 99 1010.9
20260904094127 18 170 1.6 3.2 0.00 0.81 0.81 99 1010.9
20260904093624 18 155 1.6 1.6 0.00 0.81 0.81 99 1010.6
20260904093124 18 166 1.6 1.6 0.00 0.81 0.81 99 1010.6
20260904092620 18 166 0.0 1.6 0.00 0.81 0.81 99 1010.5
20260904092116 18 166 0.0 0.0 0.00 0.81 0.81 99 1010.5
20260904091612 18 166 1.6 1.6 0.00 0.81 0.81 99 1010.4
20260904091111 18 166 0.0 0.0 0.00 0.81 0.81 99 1010.3
20260904090607 18 167 1.6 1.6 0.00 0.81 0.81 99 1010.2
20260904085603 18 154 0.0 0.0 0.00 0.81 0.81 99 1010.2
20260904085057 18 153 0.0 0.0 0.00 0.81 0.81 99 1010.5
20260904084553 19 154 0.0 1.6 0.00 0.81 0.81 99 1010.4
20260904084049 19 154 0.0 1.6 0.00 0.81 0.81 99 1010.4
20260904083544 19 154 1.6 1.6 0.00 0.81 0.81 99 1010.4
20260904083040 19 154 1.6 1.6 0.00 0.81 0.81 99 1010.6
20260904082535 19 154 0.0 1.6 0.00 0.81 0.81 99 1010.5
20260904082036 19 153 1.6 1.6 0.00 0.81 0.81 99 1010.4
20260904081531 19 153 0.0 0.0 0.00 0.81 0.81 99 1010.5
20260904081026 19 153 0.0 1.6 0.00 0.81 0.81 99 1010.3
20260904080522 19 154 1.6 1.6 0.00 0.81 0.81 99 1010.4
20260904080018 19 154 0.0 0.0 0.00 0.81 0.81 99 1010.2
20260904075514 19 153 0.0 1.6 0.00 0.81 0.81 99 1010.3
20260904075009 19 153 1.6 1.6 0.00 0.81 0.81 99 1010.1
20260904074503 19 153 1.6 1.6 0.00 0.81 0.81 99 1010.1
20260904073958 19 153 1.6 3.2 0.00 0.81 0.81 99 1009.8
20260904073454 19 155 1.6 3.2 0.00 0.81 0.81 99 1009.7
20260904072949 19 152 0.0 0.0 0.00 0.81 0.81 99 1009.8
20260904072444 19 152 0.0 0.0 0.00 0.81 0.81 99 1009.8
20260904071939 19 152 0.0 0.0 0.00 0.81 0.81 99 1009.9
20260904071435 19 152 0.0 0.0 0.00 0.81 0.81 99 1009.7
20260904070929 19 152 0.0 0.0 0.00 0.81 0.81 99 1009.8
20260904070428 19 152 0.0 0.0 0.00 0.81 0.81 99 1009.7
20260904065922 19 152 1.6 1.6 0.00 0.81 0.81 99 1010.1
20260904065419 19 152 0.0 0.0 0.00 0.81 0.81 99 1009.8
20260904064918 20 152 0.0 0.0 0.00 0.81 0.81 99 1010.1
20260904064415 20 153 0.0 0.0 0.00 0.81 0.81 99 1010.2
20260904063910 20 153 0.0 0.0 0.00 0.81 0.81 99 1010.6
20260904063407 20 153 0.0 1.6 0.00 0.81 0.81 99 1010.7
20260904062901 20 139 1.6 1.6 0.13 0.81 0.81 99 1010.6
20260904062357 20 65 1.6 3.2 0.13 0.81 0.81 99 1010.6
20260904061853 20 120 1.6 1.6 0.18 0.79 0.79 99 1010.6
20260904061349 20 98 6.4 6.4 0.48 0.79 0.79 99 1010.7
20260904060845 20 37 1.6 3.2 0.61 0.76 0.76 99 1011.1
20260904060341 20 157 0.0 0.0 0.30 0.71 0.71 99 1011.1
20260904055836 20 141 0.0 1.6 0.00 0.66 0.66 99 1011.1
20260904055331 20 152 0.0 0.0 0.00 0.66 0.66 99 1010.9
20260904054827 20 138 0.0 0.0 0.18 0.66 0.66 99 1010.5
20260904054323 20 142 1.6 1.6 2.59 0.66 0.66 99 1010.5
20260904053818 20 169 1.6 1.6 3.66 0.64 0.64 99 1010.4
20260904053317 21 129 4.8 4.8 2.29 0.38 0.38 99 1010.9
20260904052813 21 192 1.6 1.6 0.13 0.03 0.03 99 1010.9
20260904052309 21 157 0.0 0.0 0.00 0.00 0.00 99 1010.6
20260904051805 21 157 0.0 0.0 0.00 0.00 0.00 99 1010.6
20260904051300 21 157 0.0 0.0 0.00 0.00 0.00 99 1010.6
20260904050750 21 157 0.0 0.0 0.00 0.00 0.00 99 1010.8
20260904050246 21 157 0.0 0.0 0.00 0.00 0.00 99 1010.7
20260904045741 21 157 0.0 0.0 0.00 0.00 0.00 99 1010.5
20260904045235 21 157 0.0 0.0 0.00 0.00 0.00 99 1010.7
20260904044730 21 157 0.0 0.0 0.00 0.00 0.00 99 1010.5
20260904044221 21 157 0.0 0.0 0.00 0.00 0.00 99 1010.4
20260904043717 21 156 1.6 1.6 0.00 0.00 0.00 99 1010.6
20260904043213 21 157 0.0 0.0 0.00 0.00 0.00 99 1010.7
20260904042708 21 157 0.0 0.0 0.00 0.00 0.00 99 1010.6
20260904042205 21 157 0.0 0.0 0.00 0.00 0.00 99 1010.8
20260904041704 21 157 0.0 0.0 0.00 0.00 0.00 99 1011.0
20260904041201 21 157 0.0 0.0 0.00 0.00 0.00 99 1011.1
20260904040656 21 157 0.0 0.0 0.00 0.00 0.00 99 1011.1
20260904040152 21 157 1.6 1.6 0.00 0.00 0.00 99 1011.1
20260904035648 21 157 0.0 1.6 0.00 0.66 0.66 99 1011.2
20260904035143 21 157 0.0 0.0 0.00 0.66 0.66 99 1011.2
20260904034642 21 157 0.0 0.0 0.00 0.66 0.66 99 1011.4
20260904034138 21 157 0.0 1.6 0.00 0.66 0.66 99 1011.6
20260904033634 21 157 0.0 0.0 0.00 0.66 0.66 99 1011.5
20260904033131 21 157 0.0 0.0 0.00 0.66 0.66 99 1011.4
20260904032626 21 157 0.0 0.0 0.00 0.66 0.66 99 1011.0
20260904032125 21 157 0.0 0.0 0.00 0.66 0.66 99 1011.0
20260904031624 21 157 0.0 0.0 0.00 0.66 0.66 99 1010.9
20260904031120 21 157 1.6 1.6 0.00 0.66 0.66 99 1010.9
20260904030616 21 157 0.0 0.0 0.00 0.66 0.66 99 1010.9
20260904030111 21 157 0.0 1.6 0.00 0.66 0.66 99 1010.7
20260904025607 21 157 0.0 0.0 0.00 0.66 0.66 99 1010.9
20260904025101 21 157 0.0 1.6 0.00 0.66 0.66 99 1011.1
20260904024557 21 157 1.6 1.6 0.00 0.66 0.66 99 1011.4
20260904024052 21 157 0.0 0.0 0.00 0.66 0.66 99 1011.4
20260904023548 21 157 0.0 0.0 0.00 0.66 0.66 99 1011.7
20260904023044 21 157 0.0 1.6 0.00 0.66 0.66 99 1011.6
20260904022539 21 157 0.0 0.0 0.00 0.66 0.66 99 1011.6
20260904022036 21 157 0.0 0.0 0.00 0.66 0.66 99 1011.6
20260904021531 22 156 0.0 0.0 0.61 0.66 0.66 99 1011.7
20260904021026 22 157 0.0 0.0 1.37 0.66 0.66 99 1012.0
20260904020521 22 183 0.0 0.0 0.89 0.58 0.58 99 1012.3
20260904020021 22 187 3.2 4.8 0.00 0.43 0.43 99 1012.3
20260904015515 22 150 0.0 0.0 0.00 0.43 0.43 99 1012.1
20260904015014 22 150 0.0 0.0 0.00 0.43 0.43 99 1012.2
20260904014508 22 150 0.0 0.0 0.00 0.43 0.43 99 1012.2
20260904014004 22 150 0.0 0.0 0.00 0.43 0.43 99 1012.0
20260904013500 22 150 0.0 0.0 0.00 0.43 0.43 99 1012.0
20260904012956 22 150 1.6 1.6 0.00 0.43 0.43 99 1012.1
20260904012456 22 150 1.6 1.6 0.00 0.43 0.43 99 1012.2
20260904011950 22 150 0.0 0.0 0.00 0.43 0.43 99 1012.1
20260904011445 22 149 0.0 0.0 0.00 0.43 0.43 99 1012.1
20260904010940 22 159 0.0 0.0 0.00 0.43 0.43 99 1012.1
20260904010437 22 176 0.0 0.0 0.00 0.43 0.43 99 1012.0
20260904005931 22 178 1.6 1.6 0.00 0.43 0.43 99 1012.2
20260904005427 22 154 1.6 1.6 0.00 0.43 0.43 99 1012.2
20260904004921 22 154 0.0 0.0 0.00 0.43 0.43 99 1012.0
20260904004418 22 154 0.0 1.6 0.00 0.43 0.43 99 1011.7
20260904003913 22 154 0.0 0.0 0.00 0.43 0.43 99 1011.6
20260904003409 22 153 1.6 1.6 0.00 0.43 0.43 99 1011.3
20260904002903 22 152 0.0 0.0 0.00 0.43 0.43 99 1011.3
20260904002400 22 152 1.6 1.6 0.00 0.43 0.43 99 1011.3
20260904001859 22 153 0.0 1.6 0.00 0.43 0.43 99 1011.7
20260904001355 22 152 0.0 0.0 0.00 0.43 0.43 99 1011.7
20260904000849 22 152 0.0 0.0 0.00 0.43 0.43 99 1011.7
20260904000348 22 152 0.0 0.0 0.00 0.43 0.43 99 1011.8
20260903235843 22 152 0.0 0.0 0.00 0.43 0.43 99 1011.6
20260903235339 22 152 0.0 0.0 0.00 0.43 0.43 99 1011.5
20260903234838 22 152 0.0 0.0 0.00 0.43 0.43 99 1011.7
20260903234335 22 152 0.0 0.0 0.00 0.43 0.43 99 1011.5
20260903233831 22 152 0.0 0.0 0.00 0.43 0.43 99 1011.6
20260903233327 22 152 0.0 0.0 0.00 0.43 0.43 99 1011.6
20260903232826 22 152 0.0 0.0 0.00 0.43 0.43 99 1011.4
20260903232321 22 152 0.0 0.0 0.00 0.43 0.43 99 1011.2
20260903231820 22 152 0.0 0.0 0.00 0.43 0.43 99 1011.2
20260903231316 22 152 0.0 0.0 0.00 0.43 0.43 99 1011.4
20260903230811 23 152 0.0 0.0 0.00 0.43 0.43 99 1011.4
20260903230307 23 152 0.0 0.0 0.00 0.43 0.43 99 1011.2
20260903225803 23 152 0.0 0.0 0.00 0.43 0.43 98 1011.1
20260903225258 23 152 0.0 0.0 0.00 0.43 0.43 98 1010.9
20260903224755 23 152 0.0 0.0 0.00 0.43 0.43 97 1011.0
20260903224250 23 145 0.0 0.0 0.00 0.43 0.43 97 1011.1
20260903223746 24 145 0.0 1.6 0.00 0.43 0.43 96 1010.9
20260903223244 24 145 0.0 0.0 0.00 0.43 0.43 96 1011.0
20260903222739 25 145 0.0 0.0 0.00 0.43 0.43 96 1011.2
20260903222238 25 145 0.0 0.0 0.00 0.43 0.43 95 1011.3
20260903221733 25 145 0.0 0.0 0.00 0.43 0.43 94 1011.1
20260903221232 25 145 0.0 0.0 0.00 0.43 0.43 93 1011.3
20260903220730 25 145 0.0 0.0 0.00 0.43 0.43 94 1011.3
20260903220225 25 145 0.0 0.0 0.00 0.43 0.43 92 1011.2
20260903215724 25 145 1.6 1.6 0.00 0.43 0.43 91 1011.4
20260903215220 26 145 1.6 1.6 0.00 0.43 0.43 90 1011.5
20260903214718 25 144 0.0 0.0 0.00 0.43 0.43 90 1011.4
20260903214214 25 144 0.0 0.0 0.00 0.43 0.43 91 1011.4
20260903213708 26 144 0.0 0.0 0.00 0.43 0.43 88 1011.4
20260903213204 26 144 1.6 1.6 0.00 0.43 0.43 86 1011.2
20260903212700 27 144 0.0 0.0 0.00 0.43 0.43 85 1011.4
20260903212156 26 144 0.0 0.0 0.00 0.43 0.43 85 1011.3
20260903211649 26 144 0.0 0.0 0.00 0.43 0.43 86 1011.3
20260903211147 26 144 0.0 0.0 0.00 0.43 0.43 83 1011.4
20260903210642 27 144 0.0 0.0 0.00 0.43 0.43 83 1011.4
20260903210137 28 143 0.0 1.6 0.00 0.43 0.43 79 1011.3
20260903205637 27 212 0.0 1.6 0.00 0.43 0.43 81 1011.2
20260903205130 28 212 0.0 1.6 0.00 0.43 0.43 81 1011.4
20260903204626 27 212 0.0 0.0 0.00 0.43 0.43 84 1011.4
20260903204123 26 211 0.0 1.6 0.00 0.43 0.43 84 1011.5
20260903203617 26 211 0.0 0.0 0.00 0.43 0.43 85 1011.4
20260903203112 26 211 1.6 3.2 0.00 0.43 0.43 85 1011.5
20260903202608 27 209 0.0 0.0 0.00 0.43 0.43 84 1011.3
20260903202102 28 199 1.6 3.2 0.00 0.43 0.43 80 1011.3
20260903201556 28 199 0.0 0.0 0.00 0.43 0.43 80 1011.2
20260903201050 27 249 1.6 1.6 0.00 0.43 0.43 85 1011.3
20260903200546 28 196 1.6 1.6 0.00 0.43 0.43 79 1011.4
20260903200041 27 179 1.6 1.6 0.00 0.43 0.43 79 1011.4
20260903195537 27 235 4.8 4.8 0.00 0.43 0.43 80 1011.3
20260903195032 27 233 0.0 1.6 0.00 0.43 0.43 79 1011.4
20260903194527 27 223 0.0 1.6 0.00 0.43 0.43 83 1011.6
20260903194022 27 248 1.6 3.2 0.00 0.43 0.43 83 1011.5
20260903193519 27 171 1.6 3.2 0.00 0.43 0.43 83 1011.7
20260903193014 27 222 4.8 4.8 0.00 0.43 0.43 79 1011.7
20260903192510 27 178 1.6 1.6 0.00 0.43 0.43 83 1011.8
20260903192004 27 129 1.6 1.6 0.00 0.43 0.43 79 1011.9
20260903191500 27 192 4.8 4.8 0.00 0.43 0.43 78 1011.7
20260903190955 27 125 0.0 0.0 0.00 0.43 0.43 85 1012.0
20260903190454 26 175 0.0 1.6 0.00 0.43 0.43 85 1012.0
20260903185948 26 141 1.6 1.6 0.00 0.43 0.43 85 1012.1
20260903185445 26 141 0.0 1.6 0.00 0.43 0.43 87 1012.0
20260903184944 25 166 0.0 0.0 0.00 0.43 0.43 86 1012.0
20260903184442 26 137 0.0 1.6 0.00 0.43 0.43 86 1012.2
20260903183936 26 90 3.2 3.2 0.00 0.43 0.43 84 1012.1
20260903183430 27 109 1.6 1.6 0.00 0.43 0.43 82 1012.3
20260903182930 27 178 1.6 1.6 0.00 0.43 0.43 85 1012.1
20260903182429 27 187 6.4 9.7 0.00 0.43 0.43 81 1012.0
20260903181925 27 201 4.8 4.8 0.00 0.43 0.43 83 1012.3
20260903181419 27 195 8.0 9.7 0.00 0.43 0.43 79 1012.1
20260903180918 27 121 1.6 3.2 0.00 0.43 0.43 83 1012.4
20260903180413 27 219 1.6 1.6 0.00 0.43 0.43 84 1012.2
20260903175913 27 233 1.6 1.6 0.00 0.43 0.43 82 1012.2
20260903175407 27 204 6.4 9.7 0.00 0.43 0.43 81 1012.4
20260903174901 27 198 1.6 3.2 0.00 0.43 0.43 85 1012.2
20260903174356 27 189 1.6 1.6 0.00 0.43 0.43 81 1012.4
20260903173850 26 214 3.2 3.2 0.00 0.43 0.43 84 1012.4
20260903173346 27 221 3.2 4.8 0.00 0.43 0.43 84 1012.6
20260903172842 26 237 4.8 4.8 0.00 0.43 0.43 86 1012.5
20260903172336 26 213 6.4 9.7 0.00 0.43 0.43 85 1012.1
20260903171832 26 177 4.8 4.8 0.00 0.43 0.43 81 1012.5
20260903171327 26 179 6.4 6.4 0.00 0.43 0.43 85 1012.6
20260903170826 26 203 0.0 1.6 0.00 0.43 0.43 86 1012.7
20260903170322 26 226 6.4 6.4 0.00 0.43 0.43 86 1012.7
20260903165820 26 206 1.6 3.2 0.00 0.43 0.43 86 1012.6
20260903165314 25 234 6.4 9.7 0.00 0.43 0.43 86 1012.6
20260903164814 25 208 3.2 3.2 0.00 0.43 0.43 88 1012.7
20260903164310 25 199 1.6 1.6 0.00 0.43 0.43 86 1012.7
20260903163809 25 186 1.6 1.6 0.00 0.43 0.43 88 1012.8
20260903163306 25 151 3.2 6.4 0.00 0.43 0.43 86 1013.0
20260903162801 25 196 3.2 4.8 0.00 0.43 0.43 90 1013.1
20260903162257 25 240 3.2 3.2 0.00 0.43 0.43 88 1012.8
20260903161753 25 105 1.6 3.2 0.00 0.43 0.43 87 1013.1
20260903161248 24 116 0.0 1.6 0.00 0.43 0.43 90 1013.1
20260903160744 24 202 6.4 6.4 0.00 0.43 0.43 91 1013.2
20260903160243 23 224 1.6 3.2 0.00 0.43 0.43 92 1013.4
20260903155741 23 319 3.2 3.2 0.00 0.43 0.43 91 1013.4
20260903155237 22 203 3.2 3.2 0.00 0.43 0.43 95 1013.3
20260903154732 22 186 1.6 3.2 0.00 0.43 0.43 96 1013.8
20260903154228 22 162 0.0 1.6 0.00 0.43 0.43 95 1013.5
20260903153723 22 181 0.0 0.0 0.00 0.43 0.43 97 1013.6
20260903153219 22 196 3.2 3.2 0.00 0.43 0.43 97 1013.6
20260903152715 21 182 0.0 1.6 0.00 0.43 0.43 98 1013.6
20260903152212 21 177 0.0 1.6 0.00 0.43 0.43 99 1013.7
20260903151711 21 177 0.0 0.0 0.00 0.43 0.43 99 1013.6
20260903151206 21 178 3.2 3.2 0.00 0.43 0.43 99 1013.8
20260903150701 22 174 0.0 0.0 0.00 0.43 0.43 99 1013.9
20260903150155 21 180 1.6 1.6 0.00 0.43 0.43 98 1014.0